sat.trackr.live / text

‹ back to catalog

STARLINK-4794

NORAD 53853 · 2022-114AM

PAYLOAD ACTIVE UNKNOWN

§ Identity

Operator
Country
US
Launch date
2022-09-19
Launch site
AFETR
Launch vehicle
Mass (kg)
RCS (m²)

Purposes: comms

External: N2YO · Heavens-Above · Gunter

§ Orbital elements

Epoch: 2026-09-19T22:57:44.432928Z

Period
95.44 min
Inclination
53.1596°
Eccentricity
0.0001825
Mean motion
15.08844413 rev/d
Perigee alt
538.5 km
Apogee alt
541.0 km
Semi-major
6,917.9 km
B*
8.1376e-5
RAAN
141.0591°
Arg perigee
83.2435°
Mean anomaly
276.8764°
Rev number
22,230

§ Raw data

STARLINK-47941 53853U 22114AM  26262.95676427  .00001007  00000+0  81376-4 0  99942 53853  53.1596 141.0591 0001825  83.2435 276.8764 15.08844413222304

JSON: /api/v1/satellites/53853 · /tle

For live sub-satellite position, see the globe view (requires WebGL).

§ Visibility from observer

Set your observer location to see the next 7 days of passes ≥ 10°. The values pass through the URL so the page stays shareable.

No JS? Fill the form by hand. The geolocation button needs JavaScript.